This is the latest recevied weather packets stored in our database for station/object K4CRS-13. If no packets are shown the sender has not sent any weather packets the latest 10 day(s).
| Time | Temp. | Humidity | Pressure | Rain* | Wind** | Luminosity | Snow |
|---|---|---|---|---|---|---|---|
| 1777837524 | 20.56° C | 38% | 1054.8 hPa | 0 mm | - | 731 W/m² | - |
| 1777837224 | 20.56° C | 34% | 1055 hPa | 0 mm | - | 742 W/m² | - |
| 1777836921 | 20° C | 40% | 1054.7 hPa | 0 mm | - | 749 W/m² | - |
| 1777836616 | 20.56° C | 38% | 1054.8 hPa | 0 mm | - | 757 W/m² | - |
| 1777836312 | 21.11° C | 44% | 1055.1 hPa | 0 mm | - | 764 W/m² | - |
| 1777836008 | 20.56° C | 38% | 1055.2 hPa | 0 mm | - | 772 W/m² | - |
| 1777835705 | 20° C | 39% | 1055.4 hPa | 0 mm | - | 780 W/m² | - |
| 1777835402 | 20° C | 41% | 1055.4 hPa | 0 mm | - | 788 W/m² | - |
| 1777835099 | 20° C | 37% | 1055.2 hPa | 0 mm | - | 789 W/m² | - |
| 1777834796 | 20° C | 41% | 1055.5 hPa | 0 mm | - | 796 W/m² | - |
| 1777834492 | 19.44° C | 42% | 1055.4 hPa | 0 mm | - | 807 W/m² | - |
| 1777834192 | 20° C | 37% | 1055.6 hPa | 0 mm | - | 810 W/m² | - |
| 1777833889 | 20° C | 42% | 1055.4 hPa | 0 mm | - | 814 W/m² | - |
| 1777833585 | 19.44° C | 37% | 1055.7 hPa | 0 mm | - | 817 W/m² | - |
| 1777833282 | 19.44° C | 38% | 1055.8 hPa | 0 mm | - | 825 W/m² | - |
| 1777832978 | 20° C | 39% | 1055.8 hPa | 0 mm | - | 829 W/m² | - |
| 1777832677 | 20° C | 39% | 1055.8 hPa | 0 mm | - | 831 W/m² | - |
| 1777832375 | 20° C | 39% | 1056 hPa | 0 mm | - | 834 W/m² | - |
| 1777832072 | 19.44° C | 40% | 1056.2 hPa | 0 mm | - | 836 W/m² | - |
| 1777831767 | 19.44° C | 37% | 1056 hPa | 0 mm | - | 840 W/m² | - |
| 1777831466 | 20° C | 38% | 1056.1 hPa | 0 mm | - | 841 W/m² | - |
| 1777831162 | 19.44° C | 40% | 1056.1 hPa | 0 mm | - | 843 W/m² | - |
| 1777830855 | 18.33° C | 40% | 1056.2 hPa | 0 mm | - | 846 W/m² | - |
| 1777830550 | 18.89° C | 43% | 1056.4 hPa | 0 mm | - | 844 W/m² | - |
| 1777830249 | 18.89° C | 38% | 1056.2 hPa | 0 mm | - | 842 W/m² | - |
* Rain latest hour (hover to see other rain measurements)
** Current wind speed in m/s (hover to see current wind gust speed)